• In Hungary
  • List of Countries
  • For 7 days
  • Water Temperature
  • Satellite Maps
  • Weather Map
  • News
  • Weather Widgets
  • user-avatar
    Login

    Hourly Weather Dvur Kralove nad Labem

    Today, 12 December, Tuesday

    Time Temperature Precipitation Wind Pressure Humidity
    00:00 +7°C° 0 mm 5 mps 714 mmHg 82%
    01:00 +7°C° 0 mm 5 mps 715 mmHg 81%
    02:00 +6°C° 0.2 mm 5 mps 716 mmHg 84%
    03:00 +6°C° 0.2 mm 5 mps 716 mmHg 86%
    04:00 +5°C° 0.2 mm 4 mps 717 mmHg 89%
    05:00 +5°C° 0.1 mm 5 mps 718 mmHg 87%
    06:00 +5°C° 0.1 mm 5 mps 719 mmHg 85%
    07:00 +3°C° 0.1 mm 5 mps 720 mmHg 82%
    08:00 +3°C° 0 mm 6 mps 721 mmHg 78%
    09:00 +4°C° 0 mm 7 mps 722 mmHg 73%
    10:00 +4°C° 0 mm 7 mps 723 mmHg 68%
    11:00 +4°C° 0 mm 8 mps 724 mmHg 66%
    12:00 +2°C° 0 mm 8 mps 726 mmHg 64%
    13:00 +2°C° 0 mm 8 mps 727 mmHg 61%
    14:00 +2°C° 0 mm 8 mps 728 mmHg 63%
    15:00 +2°C° 0 mm 7 mps 728 mmHg 65%
    16:00 0°C° 0 mm 7 mps 729 mmHg 66%
    17:00 +1°C° 0 mm 6 mps 730 mmHg 67%
    18:00 +1°C° 0 mm 6 mps 731 mmHg 68%
    19:00 -1°C° 0 mm 6 mps 732 mmHg 69%
    20:00 -1°C° 0 mm 6 mps 732 mmHg 70%
    21:00 0°C° 0 mm 5 mps 733 mmHg 72%
    22:00 0°C° 0 mm 5 mps 734 mmHg 74%
    23:00 -1°C° 0 mm 5 mps 734 mmHg 76%

    Tomorrow, 13 December, Wednesday

    Time Temperature Precipitation Wind Pressure Humidity
    00:00 -1°C° 0 mm 4 mps 734 mmHg 78%
    01:00 0°C° 0 mm 3 mps 735 mmHg 79%
    02:00 0°C° 0 mm 3 mps 735 mmHg 81%
    03:00 -1°C° 0 mm 3 mps 735 mmHg 83%
    04:00 -1°C° 0 mm 3 mps 735 mmHg 85%
    05:00 -1°C° 0 mm 3 mps 735 mmHg 85%
    06:00 -2°C° 0 mm 3 mps 736 mmHg 86%
    07:00 -2°C° 0 mm 3 mps 736 mmHg 86%
    08:00 -1°C° 0 mm 3 mps 736 mmHg 82%
    09:00 -2°C° 0 mm 4 mps 736 mmHg 78%
    10:00 -1°C° 0 mm 4 mps 736 mmHg 75%
    11:00 -1°C° 0 mm 4 mps 735 mmHg 72%
    12:00 0°C° 0 mm 5 mps 734 mmHg 69%
    13:00 0°C° 0 mm 5 mps 734 mmHg 66%
    14:00 0°C° 0 mm 5 mps 733 mmHg 68%
    15:00 -1°C° 0 mm 4 mps 732 mmHg 70%
    16:00 -1°C° 0 mm 4 mps 732 mmHg 72%
    17:00 -1°C° 0 mm 5 mps 731 mmHg 71%
    18:00 -1°C° 0 mm 5 mps 730 mmHg 70%
    19:00 -2°C° 0 mm 6 mps 729 mmHg 69%
    20:00 -2°C° 0.1 mm 6 mps 729 mmHg 68%
    21:00 -2°C° 0.1 mm 6 mps 728 mmHg 66%
    22:00 -1°C° 0.1 mm 6 mps 727 mmHg 65%
    23:00 -1°C° 0.1 mm 6 mps 727 mmHg 65%

    Day after tomorrow, 14 December, Thursday

    Time Temperature Precipitation Wind Pressure Humidity
    00:00 -1°C° 0.1 mm 7 mps 726 mmHg 65%
    01:00 -1°C° 0.1 mm 7 mps 725 mmHg 66%
    02:00 0°C° 0.1 mm 7 mps 724 mmHg 68%
    03:00 0°C° 0.1 mm 7 mps 723 mmHg 69%
    04:00 0°C° 0.1 mm 7 mps 723 mmHg 71%
    05:00 0°C° 0.2 mm 7 mps 722 mmHg 70%
    06:00 0°C° 0.2 mm 7 mps 722 mmHg 69%
    07:00 0°C° 0.2 mm 7 mps 722 mmHg 68%
    08:00 +2°C° 0.6 mm 7 mps 722 mmHg 71%
    09:00 +2°C° 0.6 mm 7 mps 723 mmHg 74%
    10:00 +2°C° 0.6 mm 8 mps 723 mmHg 78%
    11:00 +3°C° 0.1 mm 7 mps 724 mmHg 70%
    12:00 +2°C° 0.1 mm 7 mps 724 mmHg 63%
    13:00 +2°C° 0.1 mm 6 mps 725 mmHg 55%
    14:00 +1°C° 0 mm 5 mps 724 mmHg 58%
    15:00 0°C° 0 mm 4 mps 724 mmHg 61%
    16:00 0°C° 0 mm 3 mps 724 mmHg 64%
    17:00 0°C° 0 mm 3 mps 724 mmHg 65%
    18:00 -1°C° 0 mm 4 mps 723 mmHg 67%
    19:00 -1°C° 0 mm 4 mps 723 mmHg 69%
    20:00 0°C° 0.1 mm 5 mps 723 mmHg 72%
    21:00 0°C° 0.1 mm 5 mps 722 mmHg 76%
    22:00 -1°C° 0.1 mm 6 mps 721 mmHg 80%
    23:00 +1°C° 0.4 mm 6 mps 720 mmHg 81%

    15 December, Friday

    Time Temperature Precipitation Wind Pressure Humidity
    00:00 +1°C° 0.4 mm 6 mps 719 mmHg 82%
    01:00 0°C° 0.4 mm 7 mps 718 mmHg 84%
    02:00 0°C° 0.9 mm 7 mps 718 mmHg 83%
    03:00 0°C° 0.9 mm 8 mps 718 mmHg 82%
    04:00 +1°C° 0.9 mm 9 mps 718 mmHg 80%
    05:00 0°C° 0.1 mm 8 mps 719 mmHg 80%
    06:00 -1°C° 0.1 mm 7 mps 720 mmHg 79%
    07:00 -2°C° 0.1 mm 6 mps 721 mmHg 79%
    08:00 -2°C° 0 mm 6 mps 721 mmHg 79%
    09:00 0°C° 0 mm 5 mps 722 mmHg 78%
    10:00 0°C° 0 mm 5 mps 723 mmHg 78%
    11:00 0°C° 0 mm 5 mps 723 mmHg 77%
    12:00 +1°C° 0 mm 5 mps 723 mmHg 75%
    13:00 +2°C° 0 mm 5 mps 723 mmHg 74%
    14:00 +1°C° 0 mm 4 mps 723 mmHg 77%
    15:00 0°C° 0 mm 4 mps 723 mmHg 79%
    16:00 +1°C° 0 mm 3 mps 723 mmHg 82%
    17:00 0°C° 0 mm 3 mps 723 mmHg 83%
    18:00 0°C° 0 mm 3 mps 723 mmHg 84%
    19:00 -1°C° 0 mm 3 mps 723 mmHg 85%
    20:00 -1°C° 0 mm 3 mps 723 mmHg 85%
    21:00 -1°C° 0 mm 3 mps 723 mmHg 84%
    22:00 -1°C° 0 mm 3 mps 723 mmHg 84%
    23:00 -1°C° 0 mm 3 mps 723 mmHg 84%

    16 December, Saturday

    Time Temperature Precipitation Wind Pressure Humidity
    00:00 0°C° 0 mm 3 mps 723 mmHg 84%
    01:00 0°C° 0 mm 3 mps 723 mmHg 84%
    02:00 0°C° 0 mm 3 mps 723 mmHg 85%
    03:00 -1°C° 0 mm 2 mps 723 mmHg 85%
    04:00 -1°C° 0 mm 2 mps 723 mmHg 86%
    05:00 -1°C° 0 mm 3 mps 723 mmHg 87%
    06:00 -1°C° 0 mm 3 mps 723 mmHg 87%
    07:00 -1°C° 0 mm 3 mps 724 mmHg 87%
    08:00 -1°C° 0.2 mm 4 mps 724 mmHg 87%
    09:00 -1°C° 0.2 mm 5 mps 725 mmHg 86%
    10:00 -1°C° 0.2 mm 5 mps 726 mmHg 86%
    11:00 0°C° 0.1 mm 5 mps 726 mmHg 84%
    12:00 0°C° 0.1 mm 5 mps 727 mmHg 82%
    13:00 0°C° 0.1 mm 5 mps 727 mmHg 80%
    14:00 0°C° 0 mm 5 mps 728 mmHg 81%
    15:00 -1°C° 0 mm 5 mps 728 mmHg 81%
    16:00 -1°C° 0 mm 4 mps 729 mmHg 82%
    17:00 -2°C° 0 mm 4 mps 729 mmHg 83%
    18:00 -1°C° 0 mm 3 mps 730 mmHg 85%
    19:00 -2°C° 0 mm 3 mps 730 mmHg 86%
    20:00 -2°C° 0 mm 3 mps 730 mmHg 87%
    21:00 -2°C° 0 mm 2 mps 731 mmHg 87%
    22:00 -2°C° 0 mm 2 mps 731 mmHg 88%
    23:00 -2°C° 0 mm 2 mps 731 mmHg 89%

    17 December, Sunday

    Time Temperature Precipitation Wind Pressure Humidity
    00:00 -2°C° 0 mm 2 mps 731 mmHg 89%
    01:00 -2°C° 0 mm 2 mps 731 mmHg 90%
    02:00 -2°C° 0 mm 2 mps 731 mmHg 91%
    03:00 -2°C° 0 mm 2 mps 731 mmHg 91%
    04:00 -2°C° 0 mm 3 mps 731 mmHg 91%
    05:00 -2°C° 0 mm 3 mps 732 mmHg 90%
    06:00 -2°C° 0 mm 3 mps 732 mmHg 89%
    07:00 -1°C° 0 mm 3 mps 732 mmHg 89%
    08:00 -1°C° 0 mm 3 mps 733 mmHg 88%
    09:00 -1°C° 0 mm 3 mps 733 mmHg 86%
    10:00 -1°C° 0 mm 4 mps 734 mmHg 85%
    11:00 -1°C° 0 mm 4 mps 734 mmHg 82%
    12:00 -1°C° 0 mm 4 mps 734 mmHg 80%
    13:00 0°C° 0 mm 4 mps 734 mmHg 77%
    14:00 -1°C° 0 mm 4 mps 734 mmHg 79%
    15:00 -1°C° 0 mm 3 mps 735 mmHg 81%
    16:00 -1°C° 0 mm 3 mps 735 mmHg 83%
    17:00 -1°C° 0 mm 3 mps 735 mmHg 84%
    18:00 -2°C° 0 mm 3 mps 736 mmHg 85%
    19:00 -2°C° 0 mm 3 mps 736 mmHg 86%
    20:00 -2°C° 0 mm 3 mps 736 mmHg 86%
    21:00 -2°C° 0 mm 3 mps 737 mmHg 87%
    22:00 -2°C° 0 mm 3 mps 737 mmHg 87%
    23:00 -4°C° 0 mm 3 mps 737 mmHg 88%
    Show more